Regional Weather Roundup
Issued by NWS

Home | Current Version | Previous Version | Text Only | Print | Product List | Glossary On
Versions: 1 2 3 4 5 6 7 8 9 10 11 12 13 14 15 16 17 18 19 20 21 22 23 24 25 26 27 28 29 30 31 32 33 34 35 36 37 38 39 40 41 42 43 44 45 46 47 48 49 50
000
ASCA44 KEWX 282320
RWRMX

LATIN AMERICA AND CARIBBEAN REGIONAL WEATHER ROUNDUP
NATIONAL WEATHER SERVICE AUSTIN/SAN ANTONIO TX
600 PM CDT SUN AUG 28 2016

NOTE: "FAIR" INDICATED FEW OR NO CLOUDS BELOW 12,000 FEET WITH NO
SIGNIFICANT WEATHER AND/OR OBSTRUCTIONS TO VISIBILITY.

BAJA CALIFORNIA

CITY           SKY/WX    TMP DP  RH WIND       PRES   REMARKS
LORETO         SUNNY     95  81  63 NE9       29.81F HX 115
LA PAZ         SUNNY     97  52  21 N8        29.82F HX  94
MEXICALI         N/A    N/A N/A N/A MISG        N/A
S.J. DEL CABO  SUNNY     91  68  46 SE14      29.84F HX  95
TIJUANA        SUNNY     73  59  60 W12       29.98F

NORTHWESTERN MEXICO

CITY           SKY/WX    TMP DP  RH WIND       PRES   REMARKS
CULIACAN       TSTM      82  73  74 S12       29.77F
DURANGO        CLOUDY    72  54  53 E17       30.16S
GUAYMAS        SUNNY     99  64  32 W20       29.74F HX 101
HERMOSILLO     SUNNY    104  45  13 CALM      29.84F HX 100
CD. JUAREZ     MOSUNNY   90  55  31 N6        29.98F
LOS MOCHIS     SUNNY     93  64  38 W16       29.78F HX  95
OBREGON        SUNNY    100  50  18 W16       29.74F HX  97

NORTHEASTERN MEXICO

CITY           SKY/WX    TMP DP  RH WIND       PRES   REMARKS
CHIHUAHUA      PTSUNNY   84  55  37 NW9       30.06F
MATAMOROS      MOSUNNY   90  70  51 E13       29.86R HX  95
MONCLOVA       PTSUNNY   77  63  61 N13       29.98S
MONTERREY      PTSUNNY   90  63  40 E9        29.89R HX  90
NUEVO LAREDO   MOSUNNY   95  68  41 CALM      29.86F HX  99
PIEDRAS NEGRAS MOSUNNY   93  72  49 E7        29.90F HX 100
REYNOSA        MOSUNNY   95  59  30 NE12      29.83F HX  94
SALTILLO       PTSUNNY   75  66  73 SE7       30.18S
TORREON        PTSUNNY   86  64  48 CALM      30.00F
CD. VICTORIA   MOSUNNY   99  57  25 SE12      29.84F HX  97

WESTERN MEXICO

CITY           SKY/WX    TMP DP  RH WIND       PRES   REMARKS
AGUASCALIENTES PTSUNNY   72  54  53 S7        30.18S
COLIMA         LGT RAIN  72  68  88 E6        29.99R
DEL BAJIO      PTSUNNY   70  61  73 N6        30.22S
GUADALAJARA    CLOUDY    77  63  61 CALM      30.11R
MANZANILLO     PTSUNNY   90  81  74 S6        29.78S HX 108
MAZATLAN       MOSUNNY   91  75  59 NW12      29.78F HX 102
P. VALLARTA    MOSUNNY   90  81  74 W10       29.80S HX 108
URUAPAN        CLOUDY    63  61  94 NW7       30.14F
ZACATECAS      MOSUNNY   72  54  53 CALM      30.22F

CENTRAL MEXICO

CITY           SKY/WX    TMP DP  RH WIND       PRES   REMARKS
CUERNAVACA       N/A    N/A N/A N/A MISG        N/A
MEXICO CITY    PTSUNNY   73  52  46 N18       30.23R
MORELIA        CLOUDY    72  61  68 S7        30.16F
POZA RICA      SUNNY     91  75  59 E12       29.89F HX 102
PUEBLA         MOSUNNY   73  52  46 S15       30.23F
QUERETARO      PTSUNNY   77  55  47 E9        30.21F
S. LUIS POTOSI MOSUNNY   79  43  27 E17       30.16S
TAMPICO        MOSUNNY   88  72  58 E7        29.86  HX  94
TOLUCA         PTSUNNY   61  52  72 SW12      30.32R

SOUTHERN MEXICO

CITY           SKY/WX    TMP DP  RH WIND       PRES   REMARKS
ACAPULCO       CLOUDY    86  75  70 SW6       29.81F HX  95
B. DE HUATULCO RAIN      79  77  94 E13G23    29.90R
OAXACA         RAIN      73  59  60 E14       30.11S
P. ESCONDIDO   PTSUNNY   84  75  74 W8        29.92F HX  92
VERACRUZ       MOSUNNY   88  75  66 NE14      29.84S HX  97
ZIHUATANEJO    PTSUNNY   91  75  59 SW9       29.82S HX 102

YUCATAN PENINSULA

CITY           SKY/WX    TMP DP  RH WIND       PRES   REMARKS
CAMPECHE       MOSUNNY   88  81  79 NW12G23   29.78R HX 105
CANCUN         PTSUNNY   82  79  89 E3        29.81S HX  93
CHETUMAL       MOSUNNY   88  79  74 CALM      29.79S HX 102
CD. DEL CARMEN PTSUNNY   88  77  70 N7        29.83R HX 100
COZUMEL        MOSUNNY   81  77  89 CALM      29.82F
MERIDA         PTSUNNY   90  70  51 N12       29.81R HX  95
MINATITLAN     MOSUNNY   86  75  70 N12       29.79S HX  95
TAPACHULA      RAIN      77  75  94 NE7       29.82R
TUX. GUTIERREZ TSTM      73  72  94 W7        29.88R
VILLAHERMOSA   CLOUDY    81  75  83 NW6       29.87R

CENTRAL AMERICA

CITY           SKY/WX    TMP DP  RH WIND       PRES   REMARKS
BELIZE CITY    MOSUNNY   90  79  70 E9        29.79F HX 105
MANAGUA        PTCLDY    90  75  62 NW7       29.74S HX 100

CARIBBEAN

CITY           SKY/WX    TMP DP  RH WIND       PRES   REMARKS
ARUBA          PTCLDY    84  79  84 E17       29.80S HX  96
CURACAO        PTCLDY    84  75  74 E13       29.86S HX  92
KINGSTON       MOCLDY    82  75  78 VRB2      29.86R
NASSAU         MOCLDY    84  75  74 E7        29.92S HX  92
SAN JUAN       PTCLDY    82  77  83 E6        29.94S HX  91
SANTO DOMINGO  MOCLDY    79  75  89 NE5       29.94R
ST. CROIX      PTCLDY    84  77  79 E7        29.96R HX  94
ST. KITTS      PTCLDY    82  77  83 E8        29.94S HX  91
ST. MAARTEN    LGT RAIN  82  79  89 E6        29.97R HX  93

$$




USA.gov is the U.S. government's official web portal to all federal, state and local government web resources and services.